Date String (YYYY-MM-DD hh:mm:ss) UTC,Instrument flags,absolute air pressure of the measurement (hPa),sample flow rate (lpm),inlet stack bypass flow (lpm),air temperature of the measurement (°C),ambient temperature measured by the external sensor (°C),aerosol sample conditioner tube jacket temperature (°C),OPC LED temperature (°C),internal box temperature (°C),relative humidity of the measurement (%),span deviation,mass concentration of particles derived from Lorenz-Mie calculation of OPC scattering (μg/m³),mass concentration of particles derived from Lorenz-Mie calculation of OPC scattering (μg/m³),mass concentration of particles derived from Lorenz-Mie calculation of OPC scattering (μg/m³)
DateTimeUTC,F1_M11,P_M11,Q1_M11,Q2_M11,T1_M11,T2_M11,T3_M11,T4_M11,T5_M11,U1_M11,ZSPAN_M11,X0_M11,X2_M11,X1_M11
2024-05-04 05:00:00,SystemResetWarning,0830.9,5.01,000.00,024.7,024.0,000.0,033.1,026.5,017.6,0000.0,0013.44,0003.34,0001.48
2024-05-04 05:01:00,SystemResetWarning,0831.0,5.01,000.00,024.7,024.0,000.0,033.1,026.5,017.8,0000.0,0013.35,0003.36,0001.46
2024-05-04 05:02:00,SystemResetWarning,0831.1,4.99,000.00,024.7,024.0,000.0,033.2,026.5,018.0,0000.0,0013.03,0003.28,0001.43
2024-05-04 05:03:00,SystemResetWarning,0831.1,4.99,000.00,024.7,024.0,000.0,033.2,026.5,018.0,0000.0,0013.29,0003.21,0001.39
2024-05-04 05:04:00,SystemResetWarning,0831.1,4.99,000.00,024.7,024.0,000.0,033.2,026.5,018.1,0000.0,0011.98,0003.12,0001.35
2024-05-04 05:05:00,SystemResetWarning,0831.1,5.00,000.00,024.7,023.9,000.0,033.2,026.5,018.0,0000.0,0010.93,0002.98,0001.31
2024-05-04 05:06:00,SystemResetWarning,0831.1,5.02,000.00,024.6,023.9,000.0,033.2,026.5,018.0,0000.0,0010.84,0002.81,0001.26
2024-05-04 05:07:00,SystemResetWarning,0831.1,5.00,000.00,024.6,023.9,000.0,033.2,026.5,017.9,0000.0,0010.88,0002.57,0001.20
2024-05-04 05:08:00,SystemResetWarning,0831.2,5.00,000.00,024.6,023.9,000.0,033.2,026.5,018.0,0000.0,0010.21,0002.38,0001.14
2024-05-04 05:09:00,SystemResetWarning,0831.3,5.00,000.00,024.6,023.9,000.0,033.2,026.5,018.0,0000.0,0009.44,0002.21,0001.10
2024-05-04 05:10:00,SystemResetWarning,0831.3,5.00,000.00,024.6,023.9,000.0,033.1,026.4,018.1,0000.0,0008.17,0001.97,0001.05
2024-05-04 05:11:00,SystemResetWarning,0831.3,5.00,000.00,024.6,023.9,000.0,033.1,026.4,018.1,0000.0,0006.55,0001.74,0000.99
2024-05-04 05:12:00,SystemResetWarning,0831.3,5.00,000.00,024.6,023.9,000.0,033.1,026.4,018.2,0000.0,0006.38,0001.54,0000.95
2024-05-04 05:13:00,SystemResetWarning,0831.3,4.99,000.00,024.6,023.8,000.0,033.1,026.4,018.1,0000.0,0005.83,0001.46,0000.92
2024-05-04 05:14:00,SystemResetWarning,0831.3,5.00,000.00,024.6,023.8,000.0,033.1,026.4,018.0,0000.0,0004.88,0001.38,0000.91
2024-05-04 05:15:00,SystemResetWarning,0831.4,5.00,000.00,024.6,023.8,000.0,033.1,026.4,018.0,0000.0,0006.00,0001.33,0000.91
2024-05-04 05:16:00,SystemResetWarning,0831.5,5.00,000.00,024.6,023.8,000.0,033.1,026.4,018.0,0000.0,0005.98,0001.29,0000.90
2024-05-04 05:17:00,SystemResetWarning,0831.5,5.00,000.00,024.6,023.8,000.0,033.1,026.3,018.1,0000.0,0005.62,0001.32,0000.90
2024-05-04 05:18:00,SystemResetWarning,0831.4,5.00,000.00,024.5,023.8,000.0,033.1,026.3,018.1,0000.0,0004.82,0001.30,0000.92
2024-05-04 05:19:00,SystemResetWarning,0831.5,5.00,000.00,024.5,023.8,000.0,033.1,026.3,018.0,0000.0,0005.06,0001.36,0000.94
2024-05-04 05:20:00,SystemResetWarning,0831.5,5.00,000.00,024.5,023.8,000.0,033.1,026.3,018.0,0000.0,0005.32,0001.41,0000.95
2024-05-04 05:21:00,SystemResetWarning,0831.6,5.00,000.00,024.5,023.8,000.0,033.1,026.4,017.9,0000.0,0006.00,0001.47,0000.96
2024-05-04 05:22:00,SystemResetWarning,0831.6,5.01,000.00,024.5,023.8,000.0,033.1,026.3,017.9,0000.0,0006.15,0001.52,0000.99
2024-05-04 05:23:00,SystemResetWarning,0831.6,5.00,000.00,024.5,023.8,000.0,033.1,026.3,017.9,0000.0,0006.72,0001.51,0001.02
2024-05-04 05:24:00,SystemResetWarning,0831.6,5.00,000.00,024.5,023.8,000.0,033.0,026.3,017.9,0000.0,0007.09,0001.56,0001.06
2024-05-04 05:25:00,SystemResetWarning,0831.6,5.00,000.00,024.5,023.8,000.0,033.0,026.3,017.9,0000.0,0007.36,0001.63,0001.10
2024-05-04 05:26:00,SystemResetWarning,0831.6,5.00,000.00,024.5,023.7,000.0,033.0,026.3,017.9,0000.0,0006.97,0001.65,0001.13
2024-05-04 05:27:00,SystemResetWarning,0831.6,5.00,000.00,024.5,023.7,000.0,033.0,026.3,017.9,0000.0,0007.02,0001.72,0001.18
2024-05-04 05:28:00,SystemResetWarning,0831.7,4.99,000.00,024.5,023.7,000.0,033.0,026.3,018.0,0000.0,0006.87,0001.73,0001.21
2024-05-04 05:29:00,SystemResetWarning,0831.7,4.99,000.00,024.5,023.7,000.0,033.0,026.3,018.0,0000.0,0006.59,0001.82,0001.23
2024-05-04 05:30:00,SystemResetWarning,0831.8,5.00,000.00,024.5,023.7,000.0,033.0,026.3,018.0,0000.0,0006.38,0001.82,0001.26
2024-05-04 05:31:00,SystemResetWarning,0832.1,5.01,000.00,024.5,023.7,000.0,033.0,026.3,018.1,0000.0,0006.47,0001.84,0001.29
2024-05-04 05:32:00,SystemResetWarning,0831.7,5.00,000.00,024.5,023.7,000.0,033.0,026.3,018.1,0000.0,0005.94,0001.86,0001.31
2024-05-04 05:33:00,SystemResetWarning,0831.9,5.00,000.00,024.5,023.7,000.0,033.0,026.3,018.1,0000.0,0005.98,0001.83,0001.33
2024-05-04 05:34:00,SystemResetWarning,0831.8,5.01,000.00,024.5,023.7,000.0,033.0,026.3,018.1,0000.0,0005.09,0001.83,0001.33
2024-05-04 05:35:00,SystemResetWarning,0831.9,4.99,000.00,024.5,023.7,000.0,033.0,026.3,018.1,0000.0,0004.58,0001.84,0001.33
2024-05-04 05:36:00,SystemResetWarning,0832.0,4.99,000.00,024.5,023.7,000.0,033.0,026.3,018.1,0000.0,0004.60,0001.79,0001.33
2024-05-04 05:37:00,SystemResetWarning,0832.1,5.00,000.00,024.5,023.7,000.0,033.0,026.3,018.1,0000.0,0004.34,0001.82,0001.34
2024-05-04 05:38:00,SystemResetWarning,0832.1,5.02,000.00,024.5,023.7,000.0,033.0,026.3,018.1,0000.0,0004.73,0001.86,0001.35
2024-05-04 05:39:00,SystemResetWarning,0832.2,5.00,000.00,024.5,023.7,000.0,033.0,026.3,018.1,0000.0,0004.72,0001.90,0001.39
2024-05-04 05:40:00,SystemResetWarning,0832.2,4.99,000.00,024.4,023.7,000.0,033.0,026.3,018.0,0000.0,0004.52,0001.90,0001.44
2024-05-04 05:41:00,SystemResetWarning,0832.2,5.00,000.00,024.4,023.7,000.0,033.0,026.3,018.1,0000.0,0004.58,0001.96,0001.49
2024-05-04 05:42:00,SystemResetWarning,0832.2,5.00,000.00,024.4,023.7,000.0,033.0,026.3,018.1,0000.0,0004.88,0001.99,0001.52
2024-05-04 05:43:00,SystemResetWarning,0832.3,5.01,000.00,024.4,023.7,000.0,033.0,026.3,018.1,0000.0,0006.52,0002.01,0001.56
2024-05-04 05:44:00,SystemResetWarning,0832.3,5.01,000.00,024.4,023.7,000.0,033.0,026.3,018.1,0000.0,0006.92,0002.08,0001.61
2024-05-04 05:45:00,SystemResetWarning,0832.3,5.01,000.00,024.4,023.6,000.0,033.0,026.1,018.2,0000.0,0007.29,0002.19,0001.67
2024-05-04 05:46:00,SystemResetWarning,0832.4,5.00,000.00,024.3,023.6,000.0,032.9,026.0,018.2,0000.0,0007.24,0002.24,0001.73
2024-05-04 05:47:00,SystemResetWarning,0832.4,5.00,000.00,024.3,023.5,000.0,032.9,026.0,018.2,0000.0,0007.07,0002.30,0001.78
2024-05-04 05:48:00,SystemResetWarning,0832.5,5.00,000.00,024.3,023.5,000.0,032.9,026.0,018.2,0000.0,0006.59,0002.33,0001.84
2024-05-04 05:49:00,SystemResetWarning,0832.4,4.99,000.00,024.3,023.4,000.0,032.9,026.0,018.2,0000.0,0005.95,0002.33,0001.91
2024-05-04 05:50:00,SystemResetWarning,0832.4,5.00,000.00,024.2,023.4,000.0,032.9,025.9,018.2,0000.0,0005.78,0002.35,0001.96
2024-05-04 05:51:00,SystemResetWarning,0832.3,5.00,000.00,024.2,023.4,000.0,032.9,026.0,018.2,0000.0,0005.85,0002.41,0002.02
2024-05-04 05:52:00,SystemResetWarning,0832.3,5.00,000.00,024.2,023.4,000.0,032.9,026.0,018.2,0000.0,0005.90,0002.46,0002.07
2024-05-04 05:53:00,SystemResetWarning,0832.4,4.99,000.00,024.2,023.4,000.0,032.8,026.0,018.2,0000.0,0005.79,0002.48,0002.12
2024-05-04 05:54:00,SystemResetWarning,0832.4,5.00,000.00,024.2,023.4,000.0,032.8,026.0,018.2,0000.0,0004.73,0002.56,0002.19
2024-05-04 05:55:00,SystemResetWarning,0832.5,4.99,000.00,024.2,023.4,000.0,032.8,026.0,018.2,0000.0,0004.27,0002.66,0002.25
2024-05-04 05:56:00,SystemResetWarning,0832.5,5.00,000.00,024.2,023.4,000.0,032.8,026.0,018.2,0000.0,0003.94,0002.68,0002.30
2024-05-04 05:57:00,SystemResetWarning,0832.5,5.00,000.00,024.2,023.4,000.0,032.8,026.0,018.2,0000.0,0004.02,0002.72,0002.34
2024-05-04 05:58:00,SystemResetWarning,0832.5,5.00,000.00,024.2,023.4,000.0,032.8,026.0,018.2,0000.0,0004.16,0002.78,0002.39
2024-05-04 05:59:00,SystemResetWarning,0832.5,5.00,000.00,024.2,023.4,000.0,032.8,026.0,018.3,0000.0,0004.23,0002.83,0002.42
